Location: Unspecified
(0.0000°N, 0.0000°E)
Time: 03:32:39
(UTC+00:00)

OTV 5 (USA 277) - Visible Passes

Search period start: 12 December 2018 00:00
Search period end: 22 December 2018 00:00
Orbit: 340 x 348 km, 54.5° (Epoch: 10 December)

Date Brightness Start Highest point End Pass type
(mag) Time Alt. Az. Time Alt. Az. Time Alt. Az.
16 Dec ? 19:01:19 10° S 19:03:40 24° SE 19:03:40 24° SE visible
17 Dec ? 19:24:33 10° SW 19:27:11 39° WNW 19:27:11 39° WNW visible
19 Dec ? 18:36:56 10° SW 18:39:43 43° WNW 18:42:29 10° NNE visible
